This is the latest recevied weather packets stored in our database for station/object KJ7IVE-13. If no packets are shown the sender has not sent any weather packets the latest 10 day(s).
| Time | Temp. | Humidity | Pressure | Rain* | Wind** | Luminosity | Snow |
|---|---|---|---|---|---|---|---|
| 1777483974 | 14.44° C | 10% | 1022.2 hPa | 0 mm | - | 611 W/m² | - |
| 1777483670 | 13.89° C | 10% | 1022 hPa | 0 mm | - | 695 W/m² | - |
| 1777482759 | 15° C | 10% | 1022 hPa | 0 mm | - | 619 W/m² | - |
| 1777482455 | 13.89° C | 10% | 1022.3 hPa | 0 mm | - | 706 W/m² | - |
| 1777482152 | 13.89° C | 10% | 1022.3 hPa | 0 mm | - | 730 W/m² | - |
| 1777481850 | 13.89° C | 10% | 1022 hPa | 0 mm | - | 700 W/m² | - |
| 1777481547 | 13.33° C | 10% | 1022.3 hPa | 0 mm | - | 674 W/m² | - |
| 1777480636 | 13.89° C | 10% | 1022.2 hPa | 0 mm | - | 638 W/m² | - |
| 1777480333 | 12.78° C | 10% | 1022.3 hPa | 0 mm | - | 648 W/m² | - |
| 1777479726 | 12.22° C | 10% | 1022.3 hPa | 0 mm | - | 632 W/m² | - |
| 1777479418 | 12.78° C | 10% | 1022.4 hPa | 0 mm | - | 595 W/m² | - |
| 1777479114 | 12.78° C | 10% | 1022.5 hPa | 0 mm | - | 562 W/m² | - |
| 1777478508 | 12.22° C | 10% | 1022.4 hPa | 0 mm | - | 515 W/m² | - |
| 1777478205 | 12.22° C | 10% | 1022.6 hPa | 0 mm | - | 470 W/m² | - |
| 1777476990 | 11.11° C | 10% | 1022.6 hPa | 0 mm | - | 345 W/m² | - |
| 1777476688 | 11.67° C | 10% | 1022.3 hPa | 0 mm | - | 347 W/m² | - |
| 1777473954 | 10° C | 10% | 1022.2 hPa | 0 mm | - | 224 W/m² | - |
| 1777469101 | 7.22° C | 10% | 1021.7 hPa | 0 mm | - | 41 W/m² | - |
| 1777468800 | 6.11° C | 10% | 1021.8 hPa | 0 mm | - | 37 W/m² | - |
| 1777468497 | 6.11° C | 10% | 1021.8 hPa | 0 mm | - | 31 W/m² | - |
| 1777468194 | 5° C | 10% | 1021.7 hPa | 0 mm | - | 27 W/m² | - |
| 1777467890 | 5° C | 10% | 1021.8 hPa | 0 mm | - | 23 W/m² | - |
| 1777467281 | 5° C | 10% | 1021.8 hPa | 0 mm | - | 14 W/m² | - |
| 1777466372 | 5.56° C | 10% | 1021.8 hPa | 0 mm | - | 6 W/m² | - |
| 1777465765 | 5.56° C | 10% | 1021.8 hPa | 0 mm | - | 2 W/m² | - |
* Rain latest hour (hover to see other rain measurements)
** Current wind speed in m/s (hover to see current wind gust speed)